Regional Weather Roundup
Issued by NWS

Home | Current Version | Previous Version | Text Only | Print | Product List | Glossary Off
Versions: 1 2 3 4 5 6 7 8 9 10 11 12 13 14 15 16 17 18 19 20 21 22 23 24 25 26 27 28 29 30 31 32 33 34 35 36 37 38 39 40 41 42 43 44 45 46 47 48 49 50

000
ASUS43 KOAX 031010
RWRNE

WEATHER ROUNDUP FOR NEBRASKA
NATIONAL WEATHER SERVICE OMAHA NE
500 AM CDT FRI JUL 03 2015

NOTES: SATELLITE DATA IS BEING USED TO AUGMENT CLOUD COVER ABOVE
       12000 FEET.
       "FAIR" INDICATES FEW OR NO CLOUDS BELOW 12,000 FEET WITH NO
       SIGNIFICANT WEATHER AND/OR OBSTRUCTIONS TO VISIBILITY.

  * THESE STATIONS DO NOT REPORT WEATHER SUCH AS RAIN...SNOW OR FOG.

NEZ001>004-019>022-054>056-031100-
NEBRASKA PANHANDLE

CITY           SKY/WX    TMP DP  RH WIND       PRES   REMARKS
SCOTTSBLUFF    CLEAR     61  59  93 NE5       30.12S
ALLIANCE       PTCLDY    58  56  93 W6        30.11S
CHADRON        CLEAR     58  55  90 SW6       30.09F
KIMBALL          N/A    N/A N/A N/A MISG        N/A
SIDNEY         PTCLDY    58  57  97 NW3       30.15S
$$

NEZ057>060-069>072-079>082-031100-
SOUTHWEST NEBRASKA

CITY           SKY/WX    TMP DP  RH WIND       PRES   REMARKS
NORTH PLATTE   CLEAR     58  55  90 CALM      30.06R
IMPERIAL       PTCLDY    62  57  83 NW5       30.08R
LEXINGTON      CLOUDY    63  62  97 NE5       30.04S FOG
MCCOOK         PTCLDY    61  58  90 W5        30.04S
OGALLALA       CLEAR     60  59  96 CALM      30.08S
$$

NEZ005>010-023>029-035>040-094-031100-
NORTH CENTRAL NEBRASKA

CITY           SKY/WX    TMP DP  RH WIND       PRES   REMARKS
VALENTINE      CLEAR     57  56  96 CALM      30.04S
AINSWORTH      FOG       58  58  99 CALM      30.05R VSB 3/4
BROKEN BOW     CLOUDY    63  62  97 N5        30.04S FOG
O`NEILL        FOG       61  60  99 W5        30.02S VSB 1
ORD            CLEAR     58  56  93 CALM      30.01S
THEDFORD       PTCLDY    60  59  97 CALM      30.06S FOG
$$

NEZ041-046>049-061>064-073>077-083>087-031100-
SOUTH CENTRAL NEBRASKA

CITY           SKY/WX    TMP DP  RH WIND       PRES   REMARKS
GRAND ISLAND   CLOUDY    64  63  96 NE7       30.01S FOG
AURORA         CLOUDY    65  65 100 NE6       30.00S FOG
HASTINGS       CLOUDY    66  64  93 N8        30.00S FOG
HEBRON         CLOUDY    67  65  90 NE6       29.96S
HOLDREGE       FOG       62  61  97 N7        30.02S VSB 1/2
KEARNEY *      CLOUDY    63  59  88 N7        30.02S
YORK           CLOUDY    64  64 100 NE7       29.99S FOG
$$

NEZ011>018-030>034-042>045-031100-
NORTHEAST NEBRASKA

CITY           SKY/WX    TMP DP  RH WIND       PRES   REMARKS
NORFOLK        CLOUDY    64  62  93 E5        30.01R FOG
ALBION         CLOUDY    64  60  87 CALM      30.01S FOG
BLAIR          CLEAR     56  53  89 NE6       29.99R
COLUMBUS *     CLOUDY    63  57  82 NE5       30.01R
FREMONT        CLOUDY    63  57  81 E3        29.99S
TEKAMAH        PTCLDY    56  55  97 N5        30.00R FOG
WAYNE          PTCLDY    56  55  98 CALM      30.01S FOG
$$

NEZ050>053-065>068-078-088>093-031100-
SOUTHEAST NEBRASKA

CITY           SKY/WX    TMP DP  RH WIND       PRES   REMARKS
LINCOLN        CLOUDY    65  61  87 NE6       29.99S
OMAHA EPPLEY   PTCLDY    57  55  93 N6        29.98F
BEATRICE       CLOUDY    65  64  96 NE6       29.97R FOG
FALLS CITY     CLOUDY    64  60  87 NE6       29.94S
NEBRASKA CITY  CLOUDY    62  59  91 NE6       29.97S
PLATTSMOUTH    CLEAR     58  55  89 N3        29.98S
$$

NEZ044-045-051>053-067-031100-
OMAHA AREA

CITY           SKY/WX    TMP DP  RH WIND       PRES   REMARKS
OMAHA EPPLEY   PTCLDY    57  55  93 N6        29.98F
BLAIR          CLEAR     56  53  89 NE6       29.99R
FREMONT        CLOUDY    63  57  81 E3        29.99S
MILLARD        CLEAR     59  55  85 CALM      29.98S
OFFUTT AFB     CLEAR     59  55  86 NE1       29.97F
PLATTSMOUTH    CLEAR     58  55  89 N3        29.98S
WAHOO          CLOUDY    63  60  88 NE3       29.99R
$$


USA.gov is the U.S. government's official web portal to all federal, state and local government web resources and services.